Home   Weather   Lund   Past weeks

Flag for Sweden Past Weather in Lund, Sweden — Yesterday and Last 2 Weeks

Now
59 °F

Broken clouds.


Feels Like: 57 °F
Forecast: 53 / 66 °F
Wind: 9 mph from Southwest

Location: Malmo / Sturup

Current Time: Aug 20, 2017 at 9:08:14 pm

Latest Report: Aug 20, 2017 at 8:20 pm


Visibility: N/A

Pressure: 29.98 "Hg

Humidity: 88%

Dew Point: 55 °F

Location of LundLocation

Past Weather in Lund — Graph

°F

Lund Temperature Yesterday

Maximum temperature yesterday: 66 °F (at 12:20 pm)
Minimum temperature yesterday: 57 °F (at 9:20 pm)
Average temperature yesterday: 61 °F

High & Low Weather Summary for the Past Weeks

 TemperatureHumidityPressure
High72 °F (Aug 8, 12:50 pm)100% (Aug 8, 12:50 am)30.27 "Hg (Aug 8, 12:50 am)
Low43 °F (Aug 14, 5:20 am)43% (Aug 14, 4:20 pm)29.71 "Hg (Aug 19, 2:50 am)
Average62 °F80%30.00 "Hg
* Reported Aug 5 7:20 pm — Aug 20 7:50 pm, Lund. Weather by CustomWeather, © 2017

Note: Actual official high and low records may vary slightly from our data, if they occured in-between our weather recording intervals... More about our weather records

Advertising

Lund Weather History for the Previous 24 Hours

Scroll right to see more
 ConditionsComfort  
Time TempWeatherWind HumidityBarometerVisibility
7:50 pm
Sun, Aug 20
59 °FSunny.10 mph88%29.98 "Hg10 mi
7:20 pm61 °FSunny.12 mph83%29.95 "Hg10 mi
6:50 pm61 °FScattered clouds.10 mph88%29.98 "HgN/A
6:20 pm61 °FLight rain. Passing clouds.12 mph88%29.98 "HgN/A
5:50 pm61 °FScattered clouds.10 mph83%29.98 "HgN/A
5:20 pm59 °FLight rain. Scattered clouds.14 mph77%29.98 "HgN/A
4:50 pm64 °FScattered clouds.15 mph68%29.95 "HgN/A
4:20 pm64 °FScattered clouds.15 mph73%29.95 "HgN/A
3:50 pm63 °FBroken clouds.14 mph77%29.98 "HgN/A
2:50 pm66 °FPartly sunny.20 mph64%29.98 "HgN/A
2:20 pm64 °FBroken clouds.23 mph68%29.98 "HgN/A
1:50 pm66 °FBroken clouds.18 mph60%29.98 "HgN/A
1:20 pm66 °FBroken clouds.18 mph64%29.95 "HgN/A
12:50 pm64 °FBroken clouds.17 mph68%29.95 "HgN/A
12:20 pm64 °FPartly sunny.15 mph68%29.98 "HgN/A
11:50 am64 °FBroken clouds.16 mph73%29.98 "HgN/A
11:20 am63 °FBroken clouds.18 mph73%29.98 "HgN/A
10:50 am63 °FScattered clouds.16 mph77%29.98 "HgN/A
10:20 am61 °FBroken clouds.14 mph77%29.98 "HgN/A
9:50 am63 °FScattered clouds.13 mph73%29.98 "HgN/A
9:20 am59 °FScattered clouds.14 mph82%29.98 "HgN/A
8:50 am59 °FPassing clouds.14 mph82%29.95 "HgN/A
8:20 am57 °FSunny.13 mph88%29.95 "Hg10 mi
7:50 am57 °FSunny.10 mph94%29.95 "Hg10 mi
7:20 am55 °FSunny.9 mph94%29.95 "Hg10 mi
6:50 am55 °FSunny.7 mph94%29.95 "Hg10 mi
6:20 am55 °FPassing clouds.9 mph94%29.95 "HgN/A
5:50 am55 °FSunny.8 mph94%29.95 "Hg10 mi
5:20 am52 °FPassing clouds.7 mph100%29.95 "HgN/A
4:50 am55 °FPassing clouds.8 mph94%29.95 "HgN/A
4:20 am55 °FCool.7 mph94%29.95 "HgN/A
3:50 am54 °FPassing clouds.7 mph100%29.95 "HgN/A
3:20 am54 °FCool.7 mph94%29.95 "HgN/A
2:50 am55 °FPassing clouds.8 mph94%29.95 "HgN/A
2:20 am57 °FCool.8 mph88%29.95 "HgN/A
1:50 am57 °FClear.8 mph88%29.95 "Hg10 mi
1:20 am57 °FPassing clouds.12 mph88%29.95 "HgN/A
12:50 am59 °FClear.10 mph88%29.95 "Hg10 mi
12:20 am57 °FPassing clouds.9 mph88%29.95 "HgN/A
11:50 pm
Sat, Aug 19
57 °FPassing clouds.8 mph82%29.95 "HgN/A
11:20 pm59 °FClear.12 mph77%29.95 "Hg10 mi
10:50 pm57 °FClear.9 mph82%29.95 "Hg10 mi
10:20 pm57 °FClear.9 mph82%29.92 "Hg10 mi
9:50 pm59 °FClear.9 mph82%29.92 "Hg10 mi
9:20 pm57 °FClear.7 mph88%29.92 "Hg10 mi
Weather by CustomWeather, © 2017

See weather overviewHow to use our weather pages